FW6591 Weather Reports


Display with metric or nautical units.
time (UTC)temp
F
wind
direction
speed
MPH
gust
MPH
rain 1hr
in
rain 24hr
in
rain mn
in
humidity
%
barometer
mb
20260510204541 51 14 5.0 15.0 0.00 0.00 0.00 52 1015.0
20260510203039 51 19 11.0 16.0 0.00 0.00 0.00 52 1014.7
20260510201539 51 18 9.0 18.0 0.00 0.00 0.00 54 1014.7
20260510200053 51 347 11.0 19.0 0.00 0.00 0.00 54 1014.3
20260510194546 52 21 10.0 18.0 0.00 0.00 0.00 51 1014.0
20260510193043 51 321 9.0 15.0 0.00 0.00 0.00 54 1013.8
20260510191559 51 332 9.0 21.0 0.00 0.00 0.00 55 1013.6
20260510190057 52 333 12.0 22.0 0.00 0.00 0.00 54 1013.3
20260510184544 52 337 13.0 23.0 0.00 0.00 0.00 56 1013.0
20260510183052 53 322 8.0 18.0 0.00 0.00 0.00 49 1013.1
20260510181542 53 326 7.0 18.0 0.00 0.00 0.00 50 1012.9
20260510180039 53 346 7.0 16.0 0.00 0.00 0.00 49 1012.8
20260510174553 53 9 9.0 14.0 0.00 0.00 0.00 52 1012.4
20260510173043 52 327 8.0 15.0 0.00 0.00 0.00 55 1012.4
20260510171545 54 15 8.0 19.0 0.00 0.00 0.00 51 1012.1
20260510170053 54 294 13.0 24.0 0.00 0.00 0.00 51 1011.8
20260510164547 54 309 12.0 19.0 0.00 0.00 0.00 51 1011.4
20260510163053 54 9 7.0 13.0 0.00 0.00 0.00 52 1010.8
20260510161545 55 17 8.0 19.0 0.00 0.00 0.00 49 1010.2
20260510160057 55 340 7.0 15.0 0.00 0.00 0.00 49 1009.9
20260510154554 55 188 7.0 16.0 0.00 0.00 0.00 49 1009.8
20260510153041 56 228 10.0 21.0 0.00 0.00 0.00 48 1009.6
20260510151536 56 28 3.0 8.0 0.00 0.00 0.00 49 1009.3
20260510150052 57 103 3.0 10.0 0.00 0.00 0.00 48 1009.1
20260510144549 57 349 10.0 17.0 0.00 0.00 0.00 48 1009.0
20260510143044 57 319 11.0 18.0 0.00 0.00 0.00 51 1009.0
20260510141541 58 341 4.0 11.0 0.00 0.00 0.00 46 1008.6
20260510140040 59 340 15.0 28.0 0.00 0.00 0.00 45 1008.2
20260510134550 59 351 13.0 22.0 0.00 0.00 0.00 47 1008.2
20260510133044 60 32 11.0 22.0 0.00 0.00 0.00 42 1007.7
20260510131546 60 352 5.0 22.0 0.00 0.00 0.00 43 1007.6
20260510130044 59 12 18.0 29.0 0.00 0.00 0.00 44 1007.5
20260510124557 60 338 13.0 26.0 0.00 0.00 0.00 44 1006.9
20260510123045 59 360 13.0 25.0 0.00 0.00 0.00 44 1006.6
20260510121544 58 5 14.0 28.0 0.00 0.00 0.00 48 1006.6
20260510120044 58 187 12.0 21.0 0.00 0.00 0.00 52 1006.5
20260510114545 58 360 10.0 27.0 0.00 0.00 0.00 53 1005.9
20260510113049 58 209 17.0 28.0 0.00 0.00 0.00 54 1006.2
20260510111549 56 13 18.0 28.0 0.00 0.00 0.00 56 1006.7
20260510110047 57 16 16.0 29.0 0.00 0.00 0.00 56 1006.5
20260510104544 56 307 17.0 29.0 0.00 0.00 0.00 56 1006.6
20260510103044 55 320 13.0 24.0 0.00 0.00 0.00 59 1006.5
20260510101539 54 284 10.0 17.0 0.00 0.00 0.00 59 1006.5
20260510100049 54 321 14.0 28.0 0.00 0.00 0.00 59 1006.9
20260510094557 53 323 19.0 30.0 0.00 0.00 0.00 61 1007.0
20260510093109 53 26 15.0 26.0 0.00 0.00 0.00 62 1006.9
20260510091546 55 9 9.0 39.0 0.00 0.00 0.00 58 1006.6
20260510090047 55 9 15.0 35.0 0.00 0.00 0.00 58 1004.6
20260510084546 55 9 15.0 34.0 0.00 0.00 0.00 59 1004.8
20260510083048 57 16 25.0 43.0 0.00 0.00 0.00 51 1006.3
20260510081547 61 268 25.0 36.0 0.00 0.00 0.00 42 1006.6
20260510080044 61 309 29.0 46.0 0.00 0.00 0.00 39 1006.1
20260510074544 62 318 16.0 25.0 0.00 0.00 0.00 38 1005.8
20260510073049 63 330 18.0 29.0 0.00 0.00 0.00 34 1006.2
20260510071552 64 320 15.0 23.0 0.00 0.00 0.00 32 1006.0
20260510070047 63 331 10.0 16.0 0.00 0.00 0.00 35 1006.1
20260510064544 63 250 1.0 6.0 0.00 0.00 0.00 37 1006.0
20260510063043 62 211 6.0 10.0 0.00 0.00 0.00 37 1005.9
20260510061552 62 305 9.0 17.0 0.00 0.00 0.00 35 1005.6
20260510060048 61 17 4.0 11.0 0.00 0.00 0.00 36 1005.2
20260510054549 57 281 4.0 12.0 0.00 0.00 0.00 39 1005.0
20260510053058 54 0 0.0 2.0 0.00 0.00 0.00 47 1005.2
20260510051548 55 0 0.0 3.0 0.00 0.00 0.00 45 1005.0
20260510050047 54 21 3.0 8.0 0.00 0.00 0.00 46 1004.7
20260510044551 54 9 1.0 3.0 0.00 0.00 0.00 50 1004.9
20260510043050 55 57 2.0 4.0 0.00 0.00 0.00 49 1004.9
20260510041547 55 13 0.0 2.0 0.00 0.00 0.00 49 1004.9
20260510040042 55 0 0.0 2.0 0.00 0.00 0.00 50 1005.0
20260510034544 57 0 1.0 3.0 0.00 0.00 0.00 49 1005.0
20260510033048 57 32 2.0 4.0 0.00 0.00 0.00 48 1004.9
20260510031546 58 327 3.0 7.0 0.00 0.00 0.00 48 1005.1
20260510030049 60 17 2.0 8.0 0.00 0.00 0.00 48 1005.3
20260510024541 60 12 2.0 6.0 0.00 0.00 0.00 47 1005.3
20260510023043 64 315 6.0 16.0 0.00 0.00 0.00 42 1005.3
20260510021547 64 292 7.0 17.0 0.00 0.00 0.00 41 1005.4
20260510020036 63 315 7.0 15.0 0.00 0.00 0.00 44 1005.5
20260510014547 63 9 4.0 11.0 0.00 0.00 0.00 45 1005.7
20260510013049 62 313 2.0 5.0 0.00 0.00 0.00 46 1005.9
20260510011550 62 9 4.0 8.0 0.00 0.00 0.00 47 1006.0
20260510010044 59 9 3.0 4.0 0.00 0.00 0.00 54 1006.1
20260510004551 58 43 1.0 4.0 0.00 0.00 0.00 58 1006.2
20260510003045 54 309 1.0 3.0 0.00 0.00 0.00 64 1006.4
20260510001544 54 9 1.0 2.0 0.00 0.00 0.00 63 1006.9
20260510000059 54 11 2.0 4.0 0.00 0.00 0.00 63 1007.2
20260509234548 54 304 3.0 5.0 0.00 0.00 0.00 61 1007.5
20260509233047 53 281 1.0 4.0 0.00 0.00 0.00 63 1007.7
20260509231545 52 36 2.0 4.0 0.00 0.00 0.00 65 1008.0
20260509230054 50 9 2.0 5.0 0.00 0.00 0.00 69 1008.6
20260509224547 51 303 2.0 4.0 0.00 0.00 0.00 69 1008.7
20260509223043 50 292 3.0 5.0 0.00 0.00 0.00 69 1009.0
20260509221550 51 314 1.0 3.0 0.00 0.00 0.00 68 1009.3
20260509220038 53 0 0.0 3.0 0.00 0.00 0.00 63 1009.7
20260509214559 53 350 1.0 2.0 0.00 0.00 0.00 60 1010.1
20260509213049 55 31 0.0 2.0 0.00 0.00 0.00 56 1010.4
20260509211545 57 11 1.0 3.0 0.00 0.00 0.00 53 1011.0
20260509210045 60 331 1.0 8.0 0.00 0.00 0.00 48 1011.1